Tracking 21094 objects as of 14-Aug-2020
HD Live streaming from Space Station
objects crossing your sky now
Track the most recent launched group of Starlink satellites

COSMOS 886

Track COSMOS 886 now!
10-day predictions
COSMOS 886 is classified as:


NORAD ID: 9634
Int'l Code: 1976-126A
Perigee: 601.6 km
Apogee: 2,290.5 km
Inclination: 65.8 °
Period: 114.6 minutes
Semi major axis: 7817 km
RCS: 4.7964 m2 (large)
Launch date: December 27, 1976
Source: Commonwealth of Independent States (former USSR) (CIS)
Launch site: TYURATAM MISSILE AND SPACE COMPLEX (TTMTR)
aabbcc
Your satellite tracking list
Your tracking list is empty




NASA's NSSDC Master Catalog

Two Line Element Set (TLE):
1  9634U 76126A   20226.18405225 -.00000052 +00000-0 +90873-5 0  9993
2  9634 065.8367 126.3596 1080255 047.9166 320.8744 12.56149516012130
Source of the keplerian elements: AFSPC